DAL1980 SBGR-SBPA

Flight info

Callsign DAL1980
Flight time N/A
Altitude 30000
Route UBSOD UZ38 VUKMO
Aircraft B772/H-B772/2000

Departure

Time N/A
Airport São Paulo/Guarulhos–Governor André Franco Montoro International Airport (SBGR)

Arrival

Time 2026-04-29 20:12
Airport Porto Alegre-Salgado Filho International Airport (SBPA)
Time Latitude Longitude Altitude Speed Heading
2026-04-29 19:07 -23.71572 -46.84498 18435 ft 432 kts 211°
2026-04-29 19:07 -23.74262 -46.85969 18839 ft 435 kts 211°
2026-04-29 19:08 -23.76978 -46.87453 19225 ft 438 kts 211°
2026-04-29 19:08 -23.79709 -46.88945 19605 ft 441 kts 212°
2026-04-29 19:08 -23.82464 -46.90451 19972 ft 443 kts 212°
2026-04-29 19:08 -23.85237 -46.91967 20330 ft 446 kts 212°
2026-04-29 19:09 -23.88021 -46.93489 20676 ft 449 kts 212°
2026-04-29 19:09 -23.90832 -46.95028 21013 ft 452 kts 212°
2026-04-29 19:09 -23.93619 -46.96553 21338 ft 454 kts 212°
2026-04-29 19:09 -23.96466 -46.98113 21656 ft 457 kts 213°
2026-04-29 19:10 -23.99318 -46.99667 21968 ft 459 kts 212°
2026-04-29 19:10 -24.02185 -47.01233 22333 ft 460 kts 213°
2026-04-29 19:10 -24.05056 -47.02807 22666 ft 461 kts 213°
2026-04-29 19:10 -24.07900 -47.04368 22982 ft 463 kts 213°
2026-04-29 19:11 -24.10788 -47.05955 23298 ft 464 kts 213°
2026-04-29 19:11 -24.13682 -47.07546 23607 ft 465 kts 213°
2026-04-29 19:11 -24.16580 -47.09140 23907 ft 466 kts 213°
2026-04-29 19:11 -24.19482 -47.10737 24198 ft 467 kts 213°
2026-04-29 19:12 -24.22398 -47.12341 24484 ft 469 kts 213°
2026-04-29 19:12 -24.25312 -47.13946 24762 ft 469 kts 213°
2026-04-29 19:12 -24.28172 -47.15661 25039 ft 468 kts 216°
2026-04-29 19:12 -24.30023 -47.16871 25221 ft 467 kts 217°
2026-04-29 19:13 -24.33666 -47.19405 25543 ft 468 kts 219°
2026-04-29 19:13 -24.36423 -47.21397 25795 ft 469 kts 219°
2026-04-29 19:13 -24.39124 -47.23336 26040 ft 470 kts 219°
2026-04-29 19:13 -24.41874 -47.25288 26291 ft 471 kts 219°
2026-04-29 19:14 -24.44639 -47.27235 26528 ft 472 kts 218°
2026-04-29 19:14 -24.47412 -47.29178 26759 ft 473 kts 218°
2026-04-29 19:14 -24.50191 -47.31122 26983 ft 474 kts 218°
2026-04-29 19:14 -24.52980 -47.33071 27203 ft 475 kts 218°
2026-04-29 19:15 -24.55775 -47.35023 27419 ft 476 kts 218°
2026-04-29 19:15 -24.58582 -47.36970 27612 ft 478 kts 218°
2026-04-29 19:15 -24.61402 -47.38931 27791 ft 479 kts 218°
2026-04-29 19:15 -24.63845 -47.40634 27946 ft 481 kts 218°
2026-04-29 19:16 -24.66672 -47.42606 28118 ft 482 kts 218°
2026-04-29 19:16 -24.69512 -47.44590 28287 ft 483 kts 218°
2026-04-29 19:16 -24.72366 -47.46585 28452 ft 485 kts 218°
2026-04-29 19:16 -24.75216 -47.48579 28611 ft 486 kts 218°
2026-04-29 19:17 -24.78050 -47.50563 28764 ft 487 kts 218°
2026-04-29 19:17 -24.80912 -47.52568 28914 ft 489 kts 218°
2026-04-29 19:17 -24.83787 -47.54583 29060 ft 490 kts 218°
2026-04-29 19:17 -24.86666 -47.56602 29203 ft 491 kts 218°
2026-04-29 19:18 -24.89546 -47.58623 29341 ft 492 kts 218°
2026-04-29 19:18 -24.95346 -47.62696 29650 ft 494 kts 218°
2026-04-29 19:18 -24.98247 -47.64736 29863 ft 493 kts 218°
2026-04-29 19:19 -25.01131 -47.66764 29994 ft 493 kts 218°
2026-04-29 19:19 -25.06937 -47.70838 30000 ft 493 kts 218°
2026-04-29 19:20 -25.12729 -47.74917 30000 ft 493 kts 218°
2026-04-29 19:20 -25.18467 -47.78972 30000 ft 493 kts 218°
2026-04-29 19:21 -25.24237 -47.83054 30000 ft 490 kts 218°
2026-04-29 19:21 -25.29923 -47.87076 30000 ft 483 kts 219°
2026-04-29 19:22 -25.35601 -47.91098 30000 ft 483 kts 219°
2026-04-29 19:22 -25.41265 -47.95098 30000 ft 483 kts 219°
2026-04-29 19:23 -25.46902 -47.99103 30000 ft 483 kts 219°
2026-04-29 19:23 -25.52564 -48.03134 30000 ft 483 kts 219°
2026-04-29 19:24 -25.58230 -48.07172 30000 ft 483 kts 219°
2026-04-29 19:24 -25.63861 -48.11183 30000 ft 483 kts 219°
2026-04-29 19:25 -25.69531 -48.15217 30000 ft 483 kts 219°
2026-04-29 19:25 -25.75199 -48.19258 30000 ft 483 kts 219°
2026-04-29 19:26 -25.80818 -48.23270 30000 ft 483 kts 219°
2026-04-29 19:26 -25.86483 -48.27304 29888 ft 479 kts 222°
2026-04-29 19:27 -25.92050 -48.31294 29854 ft 474 kts 223°
2026-04-29 19:27 -25.97619 -48.35264 29852 ft 475 kts 223°
2026-04-29 19:28 -26.03150 -48.39210 29852 ft 475 kts 223°
2026-04-29 19:28 -26.08702 -48.43186 29852 ft 475 kts 223°
2026-04-29 19:29 -26.14258 -48.47180 29853 ft 475 kts 223°
2026-04-29 19:29 -26.18871 -48.50500 29853 ft 475 kts 223°
2026-04-29 19:30 -26.24427 -48.54501 29852 ft 475 kts 223°
2026-04-29 19:30 -26.30889 -48.59149 29852 ft 475 kts 223°
2026-04-29 19:31 -26.35491 -48.62471 29852 ft 475 kts 223°
2026-04-29 19:31 -26.41040 -48.66485 29852 ft 475 kts 223°
2026-04-29 19:32 -26.46590 -48.70502 29852 ft 474 kts 223°
2026-04-29 19:32 -26.52103 -48.74546 29852 ft 474 kts 224°
2026-04-29 19:33 -26.57570 -48.78583 29853 ft 474 kts 224°
2026-04-29 19:33 -26.63073 -48.82649 29852 ft 474 kts 224°
2026-04-29 19:34 -26.68585 -48.86711 29853 ft 474 kts 223°
2026-04-29 19:34 -26.74117 -48.90747 29852 ft 474 kts 223°
2026-04-29 19:35 -26.79607 -48.94764 29853 ft 474 kts 223°
2026-04-29 19:35 -26.85139 -48.98818 29852 ft 474 kts 223°
2026-04-29 19:36 -26.90655 -49.02866 29852 ft 474 kts 224°
2026-04-29 19:36 -26.96183 -49.06924 29853 ft 474 kts 223°
2026-04-29 19:37 -27.01721 -49.10970 29852 ft 474 kts 223°
2026-04-29 19:37 -27.07216 -49.15004 29853 ft 474 kts 223°
2026-04-29 19:38 -27.12742 -49.19070 29852 ft 474 kts 224°
2026-04-29 19:38 -27.18229 -49.23113 29853 ft 474 kts 224°
2026-04-29 19:39 -27.23742 -49.27181 29852 ft 474 kts 224°
2026-04-29 19:39 -27.29266 -49.31258 29852 ft 474 kts 223°
2026-04-29 19:40 -27.34792 -49.35330 29852 ft 474 kts 224°
2026-04-29 19:40 -27.40300 -49.39414 29852 ft 474 kts 224°
2026-04-29 19:41 -27.45805 -49.43503 29853 ft 474 kts 224°
2026-04-29 19:41 -27.51280 -49.47573 29852 ft 474 kts 224°
2026-04-29 19:42 -27.56796 -49.51670 29853 ft 474 kts 223°
2026-04-29 19:42 -27.62288 -49.55730 29852 ft 474 kts 224°
2026-04-29 19:43 -27.67826 -49.59846 29852 ft 474 kts 224°
2026-04-29 19:43 -27.73305 -49.63918 29852 ft 474 kts 224°
2026-04-29 19:44 -27.78876 -49.67963 29852 ft 476 kts 222°
2026-04-29 19:44 -27.84489 -49.71943 29853 ft 476 kts 223°
2026-04-29 19:45 -27.90055 -49.75915 29852 ft 476 kts 223°
2026-04-29 19:45 -27.95654 -49.79922 29852 ft 475 kts 223°
2026-04-29 19:46 -28.01239 -49.83926 29852 ft 475 kts 223°
2026-04-29 19:46 -28.06840 -49.87928 29852 ft 476 kts 223°
2026-04-29 19:47 -28.12447 -49.91937 29850 ft 476 kts 223°
2026-04-29 19:47 -28.18045 -49.95955 29822 ft 476 kts 222°
2026-04-29 19:48 -28.23606 -49.99954 29823 ft 476 kts 222°
2026-04-29 19:48 -28.29191 -50.03976 29823 ft 476 kts 222°
2026-04-29 19:49 -28.34775 -50.08003 29823 ft 476 kts 222°
2026-04-29 19:49 -28.40366 -50.12039 29823 ft 472 kts 222°
2026-04-29 19:49 -28.43107 -50.14021 29820 ft 459 kts 223°
2026-04-29 19:50 -28.45735 -50.15920 29819 ft 446 kts 223°
2026-04-29 19:50 -28.48321 -50.17779 29772 ft 434 kts 223°
2026-04-29 19:50 -28.50886 -50.19632 29440 ft 442 kts 223°
2026-04-29 19:50 -28.53505 -50.21529 29106 ft 452 kts 223°
2026-04-29 19:51 -28.56185 -50.23474 28655 ft 459 kts 223°
2026-04-29 19:51 -28.58881 -50.25433 28213 ft 458 kts 223°
2026-04-29 19:51 -28.61554 -50.27377 27760 ft 455 kts 223°
2026-04-29 19:51 -28.64224 -50.29320 27302 ft 452 kts 223°
2026-04-29 19:52 -28.66862 -50.31240 26850 ft 449 kts 223°
2026-04-29 19:52 -28.69494 -50.33155 26395 ft 448 kts 223°
2026-04-29 19:52 -28.72120 -50.35066 25943 ft 446 kts 224°
2026-04-29 19:52 -28.74670 -50.37023 25485 ft 440 kts 226°
2026-04-29 19:53 -28.77105 -50.39054 25034 ft 436 kts 228°
2026-04-29 19:53 -28.79512 -50.41161 24582 ft 434 kts 229°
2026-04-29 19:53 -28.81900 -50.43275 24135 ft 433 kts 229°
2026-04-29 19:53 -28.84292 -50.45363 23687 ft 433 kts 228°
2026-04-29 19:54 -28.89109 -50.49489 22799 ft 432 kts 227°
2026-04-29 19:54 -28.91513 -50.51535 22358 ft 430 kts 227°
2026-04-29 19:54 -28.93875 -50.53553 21919 ft 430 kts 227°
2026-04-29 19:55 -28.96271 -50.55605 21479 ft 429 kts 226°
2026-04-29 19:55 -28.98655 -50.57651 21036 ft 428 kts 226°
2026-04-29 19:55 -29.01035 -50.59695 20595 ft 427 kts 226°
2026-04-29 19:55 -29.03412 -50.61736 20151 ft 427 kts 226°
2026-04-29 19:56 -29.05790 -50.63781 19711 ft 426 kts 226°
2026-04-29 19:56 -29.08162 -50.65820 19263 ft 426 kts 225°
2026-04-29 19:56 -29.10515 -50.67872 18822 ft 423 kts 227°
2026-04-29 19:56 -29.12677 -50.70071 18385 ft 417 kts 232°
2026-04-29 19:57 -29.14707 -50.72425 17937 ft 415 kts 234°
2026-04-29 19:57 -29.16033 -50.74065 17636 ft 413 kts 235°
2026-04-29 19:57 -29.18548 -50.77315 17098 ft 411 kts 236°
2026-04-29 19:57 -29.20423 -50.79769 16801 ft 407 kts 236°
2026-04-29 19:58 -29.22292 -50.82214 16340 ft 407 kts 236°
2026-04-29 19:58 -29.24160 -50.84655 15905 ft 407 kts 235°
2026-04-29 19:58 -29.26003 -50.87064 15476 ft 408 kts 235°
2026-04-29 19:58 -29.27897 -50.89539 15065 ft 407 kts 235°
2026-04-29 19:59 -29.29736 -50.91943 14741 ft 405 kts 234°
2026-04-29 19:59 -29.31583 -50.94359 14540 ft 399 kts 234°
2026-04-29 19:59 -29.33404 -50.96740 14323 ft 394 kts 234°
2026-04-29 19:59 -29.35199 -50.99088 14118 ft 389 kts 234°
2026-04-29 20:00 -29.36978 -51.01412 13908 ft 385 kts 234°
2026-04-29 20:00 -29.38736 -51.03707 13608 ft 383 kts 234°
2026-04-29 20:00 -29.40509 -51.06005 13006 ft 385 kts 234°
2026-04-29 20:00 -29.42283 -51.08290 12487 ft 383 kts 234°
2026-04-29 20:01 -29.44036 -51.10547 12330 ft 371 kts 234°
2026-04-29 20:01 -29.45715 -51.12721 12283 ft 357 kts 234°
2026-04-29 20:01 -29.47327 -51.14816 12227 ft 344 kts 234°
2026-04-29 20:01 -29.48879 -51.16837 12163 ft 331 kts 235°
2026-04-29 20:02 -29.50354 -51.18760 12103 ft 319 kts 235°
2026-04-29 20:02 -29.51798 -51.20644 12039 ft 307 kts 235°
2026-04-29 20:02 -29.53182 -51.22449 11977 ft 295 kts 236°
2026-04-29 20:02 -29.54068 -51.23606 11930 ft 288 kts 236°
2026-04-29 20:03 -29.55799 -51.25868 11773 ft 278 kts 236°
2026-04-29 20:03 -29.57065 -51.27521 11699 ft 273 kts 236°
2026-04-29 20:03 -29.58309 -51.29146 11599 ft 269 kts 236°
2026-04-29 20:03 -29.59542 -51.30758 11483 ft 266 kts 236°
2026-04-29 20:04 -29.60759 -51.32346 11347 ft 264 kts 235°
2026-04-29 20:04 -29.62124 -51.33789 11146 ft 271 kts 223°
2026-04-29 20:04 -29.63761 -51.34887 11049 ft 272 kts 217°
2026-04-29 20:04 -29.65472 -51.35783 10905 ft 275 kts 210°
2026-04-29 20:05 -29.67289 -51.36497 10774 ft 275 kts 207°
2026-04-29 20:05 -29.69118 -51.37143 10649 ft 274 kts 206°
2026-04-29 20:05 -29.70940 -51.37761 10509 ft 272 kts 205°
2026-04-29 20:05 -29.72786 -51.38277 10357 ft 274 kts 201°
2026-04-29 20:06 -29.74659 -51.38662 10223 ft 274 kts 199°
2026-04-29 20:06 -29.76556 -51.38969 10012 ft 276 kts 198°
2026-04-29 20:06 -29.78467 -51.39253 9820 ft 275 kts 198°
2026-04-29 20:06 -29.80359 -51.39558 9623 ft 275 kts 198°
2026-04-29 20:07 -29.82234 -51.39882 9428 ft 274 kts 198°
2026-04-29 20:07 -29.84110 -51.40214 9240 ft 274 kts 198°
2026-04-29 20:07 -29.86011 -51.40552 9052 ft 274 kts 198°
2026-04-29 20:07 -29.87908 -51.40865 8781 ft 279 kts 195°
2026-04-29 20:08 -29.89899 -51.41028 8292 ft 294 kts 185°
2026-04-29 20:08 -29.91243 -51.40838 8231 ft 295 kts 175°
2026-04-29 20:08 -29.93830 -51.39882 8203 ft 287 kts 165°
2026-04-29 20:08 -29.95651 -51.39099 8147 ft 279 kts 164°
2026-04-29 20:09 -29.97363 -51.38061 7967 ft 276 kts 150°
2026-04-29 20:09 -29.98646 -51.36448 7731 ft 274 kts 123°
2026-04-29 20:09 -29.99185 -51.34963 4275 ft 0 kts 106°
2026-04-29 20:09 -29.99320 -51.33198 3198 ft 226 kts 84°
2026-04-29 20:10 -29.99137 -51.31488 2981 ft 211 kts 86°
2026-04-29 20:10 -29.99155 -51.29928 1827 ft 204 kts 91°
2026-04-29 20:10 -29.99212 -51.28339 1854 ft 191 kts 92°
2026-04-29 20:10 -29.99264 -51.26796 1507 ft 195 kts 91°
2026-04-29 20:11 -29.99298 -51.25246 1209 ft 190 kts 91°
2026-04-29 20:11 -29.99328 -51.23740 945 ft 186 kts 91°
2026-04-29 20:11 -29.99358 -51.22284 698 ft 181 kts 91°
2026-04-29 20:11 -29.99387 -51.20837 479 ft 180 kts 90°
2026-04-29 20:12 -29.99415 -51.19409 261 ft 176 kts 91°
2026-04-29 20:12 -29.99443 -51.18024 26 ft 165 kts 91°
2026-04-29 20:12 -29.99456 -51.17353 24 ft 37 kts 91°
2026-04-29 20:12 -29.99469 -51.17017 24 ft 47 kts 94°
2026-04-29 20:13 -29.99428 -51.16750 24 ft 19 kts 23°
2026-04-29 20:13 -29.99321 -51.16739 24 ft 19 kts 353°
2026-04-29 20:13 -29.99279 -51.16911 24 ft 29 kts 271°
2026-04-29 20:13 -29.99273 -51.17195 24 ft 34 kts 270°
2026-04-29 20:14 -29.99208 -51.17395 24 ft 26 kts 333°
2026-04-29 20:14 -29.99099 -51.17405 24 ft 0 kts 360°